www.pogodaiklimat.ru

Погода и климат >> Архив погоды >> Испания >> Madrid


АРХИВ ПОГОДЫ в Madrid

Время (UTC), дата Ветер
(напр.,м/с)
 
Видим.   Явления Облачность Т
(С)
Тd
(С)
f
(%)
Тe
(С)
Тes
(С)
Комфортность P
(гПа)
Po
(гПа)
Тmin
(С)
Tmax
(С)
R
(мм)
R24
(мм)
S
(см)
04 12.08 С 3 30 км ясно +15.9 +4.5 47 +16 +16 по сезону 1021.3 954.1
05 12.08 С 2 30 км 1/0
[Ci fib]
+14.7 +4.2 49 +15 +15 прохладно 1022.1 954.5
06 12.08 С 4 30 км 1/0
[Ci fib]
+14.9 +3.6 47 +14 +14 прохладно 1022.3 954.8 +14.3
08 12.08 СЗ 2 30 км 1/0
[Ci sp]
+19.4 +3.9 36 +20 +25 очень
холодно
1021.9 955.4
07 12.08 С 3 27 км 1/0
[Ci fib]
+16.9 +3.3 40 +17 +19 очень
холодно
1022.5 955.4
09 12.08 С 2 30 км ясно +22.4 +4.3 31 +23 +32 комфорт 1020.9 955.2
10 12.08 СЗ 3 30 км 1/0
[Ci fib]
+25.1 +5.4 28 +25 +36 комфорт 1019.9 954.8
11 12.08 С 2 30 км н/о +27.2 +3.8 22 +26 +26 жарко 1018.9 954.3
12 12.08 С 2 30 км 1/1 1500 м
[Cu hum Ci fib]
+28.8 +1.7 17 +27 +42 жарко 1018.0 953.8
14 12.08 СВ 2 30 км 1/1
[Sc diur, vesp]
+30.8 0.0 14 +28 +41 жарко 1016.0 952.3
13 12.08 С 3 30 км 1/1 1500 м
[Cu hum Ci fib]
+29.8 -0.6 14 +27 +41 жарко 1017.1 953.1
15 12.08 Ю 3 30 км 1/1
[Sc diur, vesp]
+31.9 +0.4 13 +29 +38 жарко 1014.9 951.4
16 12.08 ЮЗ 3 30 км 1/1 1500 м
[Sc diur, vesp]
+32.5 +0.2 13 +29 +35 жарко 1014.2 950.9
17 12.08 ЮВ 2 30 км 1/1 1500 м
[Sc diur, vesp]
+32.3 +0.1 13 +29 +32 жарко 1014.0 950.6
18 12.08 ЮВ 2 30 км ясно +31.7 +0.2 13 +29 +29 жарко 1013.9 950.4 +32.8
20 12.08 Ю 2 30 км ясно +26.3 -0.7 17 +24 +24 комфорт 1015.4 950.8
19 12.08 Ю 3 30 км ясно +30.2 -0.1 14 +27 +27 жарко 1014.2 950.5
21 12.08 Ю 2 30 км ясно +27.3 +0.3 17 +25 +25 комфорт 1015.4 951.0
22 12.08 С 3 30 км ясно +22.6 +2.6 27 +22 +22 комфорт 1016.5 951.0
23 12.08 С 1 30 км ясно +20.4 +2.6 31 +22 +22 комфорт 1017.1 951.2
00 13.08 С 2 30 км ясно +20.1 +1.5 29 +21 +21 комфорт 1017.4 951.4
02 13.08 С 2 30 км 5/0
[Cs]
+19.1 +2.4 33 +20 +20 по сезону 1017.7 951.4
01 13.08 СЗ 1 30 км ясно +18.7 +2.2 33 +20 +20 по сезону 1017.9 951.5
03 13.08 С 1 30 км 5/0
[Cs]
+18.1 +2.6 35 +19 +19 по сезону 1017.8 951.3
04 13.08 СЗ 2 30 км 5/0
[Cs]
+17.8 +3.4 38 +18 +18 по сезону 1018.0 951.4
05 13.08 С 1 30 км 4/0
[Cs]
+16.4 +3.2 41 +17 +17 по сезону 1018.4 951.5
06 13.08 СЗ 2 30 км 3/0
[Ci fib]
+16.6 +4.1 43 +17 +17 по сезону 1018.6 951.7 +16.0
08 13.08 С 2 30 км 1/0
[Ci fib]
+22.0 +8.6 42 +23 +28 комфорт 1017.7 952.1
07 13.08 С 3 30 км 3/0
[Ci fib]
+19.7 +5.3 39 +21 +22 комфорт 1018.1 952.0
09 13.08 СВ 2 30 км 1/0
[Ci fib]
+25.0 +10.2 39 +26 +36 жарко 1016.9 952.0
10 13.08 ЮВ 3 30 км 1/0
[Ci fib]
+27.1 +10.2 35 +28 +39 жарко 1015.9 951.6
11 13.08 ЮВ 2 30 км 1/0
[Ac trans]
+29.1 +9.9 30 +29 +44 жарко 1014.8 951.0
12 13.08 ЮВ 2 30 км 1/0
[Ac trans]
+31.2 +11.1 29 +31 +48 жарко 1013.6 950.2
14 13.08 Ю 1 30 км 1/1 1500 м
[Cu hum]
+33.5 +6.9 19 +32 +47 жарко 1011.5 948.7
13 13.08 ЮВ 2 30 км 1/1 1500 м
[Cu hum]
+31.9 +9.1 24 +31 +46 жарко 1012.6 949.4
15 13.08 В 2 30 км 3/3 1500 м
[Cu hum]
+33.9 +5.8 17 +32 +40 жарко 1011.0 948.3
16 13.08 З 2 30 км 3/3 1500 м
[Cu Sc]
+33.6 +5.0 17 +31 +36 жарко 1010.6 947.8
17 13.08 ЮЗ 3 30 км 3/3 1500 м
[Cu Sc]
+33.9 +5.0 16 +31 +33 жарко 1010.1 947.4
18 13.08 Ю 2 30 км 3/3 1500 м
[Cu Sc]
+33.0 +4.4 17 +31 +31 жарко 1010.2 947.3 +34.2
20 13.08 штиль 0 30 км ясно +27.6 +5.5 24 +27 +27 жарко 1011.5 947.5
19 13.08 ЮВ 2 30 км 1/1 2000 м
[Sc]
+31.1 +5.5 20 +29 +29 жарко 1010.6 947.3
21 13.08 Ю 2 30 км ясно +26.5 +4.9 25 +26 +26 жарко 1012.2 947.9
22 13.08 СВ 1 30 км ясно +24.2 +6.5 32 +24 +24 комфорт 1013.0 948.2
23 13.08 В 3 30 км ясно +24.4 +7.3 33 +25 +25 комфорт 1013.6 948.8
00 14.08 ЮВ 3 30 км ясно +24.9 +10.3 40 +26 +26 жарко 1013.3 948.7
02 14.08 В 2 30 км ясно +21.8 +10.8 50 +24 +24 комфорт 1015.1 949.7
01 14.08 В 2 30 км ясно +23.9 +12.3 48 +26 +26 жарко 1013.8 949.0
03 14.08 Ю 1 30 км ясно +21.0 +12.4 58 +24 +24 комфорт 1015.3 949.7
04 14.08 ЮВ 2 30 км ясно +19.8 +12.1 61 +22 +22 комфорт 1015.5 949.7
05 14.08 С 2 30 км ясно +18.1 +9.5 57 +19 +19 тепло 1016.2 949.9
06 14.08 С 2 30 км 4/0
[Ac und]
+17.8 +8.8 56 +19 +19 тепло 1016.7 950.3 +17.5
08 14.08 С 1 30 км 1/0
[Ac trans]
+22.9 +12.3 51 +26 +31 жарко 1015.7 950.5
07 14.08 С 2 30 км 4/0
[Ac und]
+20.1 +10.1 53 +22 +24 комфорт 1016.6 950.8
09 14.08 В 1 30 км 1/0
[Ac trans]
+26.2 +11.3 39 +27 +37 жарко 1014.7 950.3
10 14.08 ЮВ 2 30 км ясно +27.8 +10.8 35 +29 +42 жарко 1014.1 950.1
11 14.08 Ю 3 30 км ясно +29.4 +11.5 33 +30 +45 жарко 1013.3 949.7
12 14.08 ЮВ 5 30 км ясно +31.6 +11.8 30 +32 +41 жарко 1012.2 949.0
14 14.08 Ю 3 30 км 1/1 1500 м
[Cu hum]
+34.3 +11.1 24 +34 +45 очень
жарко
1010.2 947.7
13 14.08 ЮВ 4 30 км 1/1
[Cu hum]
+33.0 +12.1 28 +33 +45 жарко 1011.1 948.3
15 14.08 Ю 5 30 км 1/1 1500 м
[Cu hum]
+35.1 +8.5 20 +34 +39 очень
жарко
1009.5 947.1
16 14.08 Ю 3 30 км 3/3
[Cu med, cong]
+35.2 +8.1 19 +33 +38 жарко 1008.9 946.6
17 14.08 Ю 4 30 км 3/3
[Cu med, cong]
+34.5 +7.0 18 +32 +34 жарко 1009.1 946.6
18 14.08 Ю 5 30 км 3/3
[Sc diur, vesp]
+34.1 +6.6 18 +32 +32 жарко 1009.0 946.4 +35.5
20 14.08 ЮВ 4 30 км ясно +31.1 +8.1 24 +30 +30 жарко 1010.6 947.3
19 14.08 Ю 4 30 км 3/3
[Sc diur, vesp]
+32.7 +7.3 21 +31 +31 жарко 1009.5 946.6
21 14.08 ЮВ 5 30 км 4/3 2000 м
[Sc Ci sp]
+29.9 +8.1 26 +29 +29 жарко 1011.7 948.1
22 14.08 ЮВ 6 30 км 5/0
[Ac cuf Ci sp]
+28.9 +14.1 40 +31 +31 жарко 1012.3 948.7
23 14.08 ЮВ 6 30 км 6/0
[Ac cuf Ci sp]
+27.6 +13.8 43 +30 +30 жарко 1012.8 948.9
00 15.08 В 2 30 км 5/0
[Ac cuf Ci sp]
+26.5 +13.0 43 +28 +28 жарко 1013.9 949.6
02 15.08 ЮВ 4 30 км 1/0
[Ac cuf Ci sp]
+24.5 +13.9 52 +27 +27 жарко 1013.8 949.1
01 15.08 ЮВ 2 30 км 4/0
[Ac cuf Ci sp]
+25.3 +13.4 48 +27 +27 жарко 1013.8 949.3
03 15.08 ЮВ 6 30 км 1/0
[Ac cuf Ci sp]
+23.8 +14.0 54 +26 +26 жарко 1014.1 949.3
04 15.08 СВ 1 30 км ясно +22.4 +12.1 52 +25 +25 комфорт 1014.8 949.6
05 15.08 ЮВ 2 30 км ясно +21.5 +13.7 61 +24 +24 комфорт 1015.4 950.0
06 15.08 С 2 30 км ясно +19.9 +9.9 52 +22 +22 комфорт 1016.7 950.8 +19.7
08 15.08 СВ 1 30 км ясно +25.0 +12.2 45 +27 +33 жарко 1015.9 951.2
07 15.08 С 2 30 км н/о +22.4 +11.2 49 +25 +25 комфорт 1016.4 951.0
09 15.08 ЮВ 2 30 км ясно +26.2 +12.5 43 +28 +37 жарко 1015.9 951.4
10 15.08 Ю 2 30 км ясно +28.4 +12.7 38 +30 +43 жарко 1014.9 951.0
11 15.08 Ю 2 30 км 3/0
[Ci sp]
+30.4 +12.9 34 +31 +46 жарко 1014.4 950.8
12 15.08 Ю 3 30 км 3/0
[Ci sp]
+32.1 +12.2 30 +33 +46 жарко 1013.4 950.2
14 15.08 ЮЗ 6 30 км 9/0
[Cs]
+34.6 +7.4 19 +33 +38 жарко 1011.9 949.3
13 15.08 Ю 5 30 км 3/0
[Ci sp]
+33.4 +10.9 25 +33 +41 жарко 1012.6 949.7
15 15.08 ЮЗ 6 30 км 9/0
[Cs]
+34.5 +7.9 19 +33 +36 жарко 1011.5 948.9
16 15.08 ЮЗ 5 30 км 9/0
[Cs]
+33.9 +8.0 20 +32 +35 жарко 1011.4 948.7
17 15.08 ЮЗ 5 30 км 10/0
[Cs]
+34.1 +7.2 19 +32 +34 жарко 1011.3 948.6
18 15.08 ЮЗ 6 30 км 9/0
[Cs]
+33.1 +4.5 17 +31 +31 жарко 1011.6 948.6 +34.7
20 15.08 ЮЗ 5 20 км 9/0
[Cs]
+30.6 +3.6 18 +28 +28 жарко 1013.4 949.8
19 15.08 ЮЗ 5 30 км 5/0
[Cs]
+32.1 +5.8 19 +30 +30 жарко 1012.3 949.1
21 15.08 ЮЗ 5 20 км 9/0
[Cs]
+29.5 +5.1 21 +28 +28 жарко 1014.1 950.3
22 15.08 З 4 30 км ясно +27.3 +6.5 27 +27 +27 жарко 1015.3 951.0
23 15.08 С 2 30 км 3/0
[Ci fib]
+25.3 +5.6 28 +25 +25 комфорт 1015.8 951.0
00 16.08 Ю 2 30 км ясно +23.7 +5.7 31 +24 +24 комфорт 1016.2 951.0
02 16.08 СЗ 2 30 км ясно +21.3 +6.3 38 +22 +22 комфорт 1016.7 951.1
01 16.08 штиль 0 30 км ясно +22.4 +5.8 34 +23 +23 комфорт 1016.3 950.8
03 16.08 СВ 1 18 км 3/0
[Ci sp]
+19.8 +6.7 42 +22 +22 комфорт 1017.4 951.4
04 16.08 С 2 20 км 5/0
[Cs]
+18.5 +7.0 47 +20 +20 тепло 1017.8 951.5
05 16.08 С 2 20 км 3/0
[Ci fib]
+18.3 +7.3 49 +19 +19 тепло 1018.3 951.9
06 16.08 СЗ 1 20 км 5/0
[Ci fib]
+17.1 +7.5 53 +18 +18 по сезону 1019.1 952.4 +17.1
08 16.08 С 1 20 км 3/0
[Ci fib]
+23.4 +8.0 37 +24 +30 комфорт 1018.0 952.7
07 16.08 С 2 28 км 3/0
[Ci fib]
+20.7 +7.6 43 +23 +24 комфорт 1018.7 952.8
09 16.08 ЮВ 1 18 км н/о +26.4 +8.8 33 +27 +27 жарко 1017.3 952.7
10 16.08 ЮВ 2 30 км 1/0
[Ci fib]
+28.5 +8.6 29 +28 +41 жарко 1016.8 952.7
11 16.08 ЮВ 2 20 км 1/0
[Ci fib]
+30.7 +6.1 21 +29 +46 жарко 1015.9 952.3
12 16.08 Ю 3 30 км 1/0
[Ci fib]
+32.1 +4.5 18 +30 +44 жарко 1015.2 951.8
14 16.08 СЗ 2 25 км ясно +33.8 +3.1 14 +31 +45 жарко 1013.8 950.8
13 16.08 З 4 30 км 1/0
[Ci fib]
+32.7 +1.7 14 +30 +42 жарко 1014.6 951.3
15 16.08 С 1 30 км ясно +34.3 +3.3 14 +31 +44 жарко 1013.4 950.5
16 16.08 С 2 30 км 3/0
[Ci fib]
+34.4 +3.3 14 +31 +38 жарко 1013.0 950.2
17 16.08 Ю 3 30 км 1/0
[Ci fib]
+35.0 +3.8 14 +32 +35 жарко 1012.7 950.0
18 16.08 Ю 2 30 км 1/0
[Ci fib]
+34.6 +4.5 15 +32 +33 жарко 1012.7 950.0 +35.3
20 16.08 ЮВ 3 25 км ясно +30.5 +3.5 18 +28 +28 жарко 1014.4 950.8
19 16.08 ЮВ 3 30 км ясно +31.9 +3.4 16 +29 +29 жарко 1013.7 950.3
21 16.08 С 3 25 км ясно +28.4 +6.4 25 +27 +27 жарко 1015.5 951.4
22 16.08 СЗ 1 30 км ясно +26.9 +6.3 27 +26 +26 жарко 1015.9 951.5
23 16.08 С 4 30 км ясно +27.6 +5.7 25 +27 +27 жарко 1015.9 951.6
00 17.08 СЗ 4 30 км ясно +25.9 +10.5 38 +27 +27 жарко 1016.3 951.7
02 17.08 С 3 30 км ясно +23.8 +11.0 45 +25 +25 комфорт 1016.9 951.8
01 17.08 С 4 30 км ясно +24.7 +9.9 39 +26 +26 жарко 1016.7 951.8
03 17.08 С 3 30 км ясно +22.5 +11.2 49 +25 +25 комфорт 1017.3 951.9
04 17.08 С 2 30 км ясно +21.3 +11.0 52 +23 +23 комфорт 1017.6 952.0
05 17.08 С 1 30 км 1/0
[Ci fib]
+20.9 +11.5 55 +24 +24 комфорт 1018.1 952.4
06 17.08 СВ 2 30 км ясно +20.3 +11.7 58 +23 +23 комфорт 1018.6 952.7 +20.2
08 17.08 С 1 30 км ясно +25.5 +12.5 44 +27 +33 жарко 1018.0 953.2
07 17.08 С 1 20 км ясно +23.0 +11.0 47 +25 +27 комфорт 1018.4 953.0
09 17.08 З 1 25 км ясно +28.0 +15.0 45 +31 +41 душно 1017.1 953.0
10 17.08 ЮВ 3 30 км ясно +29.4 +14.8 41 +32 +43 душно 1016.8 953.0
11 17.08 Ю 2 30 км ясно +30.9 +14.4 37 +33 +49 душно 1015.8 952.3
12 17.08 ЮВ 2 30 км ясно +33.1 +11.6 27 +33 +50 жарко 1014.7 951.7
14 17.08 Ю 3 29 км н/о +35.2 +8.1 19 +33 +33 жарко 1013.0 950.4
13 17.08 ЮЗ 3 17 км ясно +34.5 +9.3 21 +33 +48 жарко 1013.7 951.0
15 17.08 ЮЗ 3 30 км ясно +36.0 +8.9 19 +34 +44 очень
жарко
1012.1 949.8
16 17.08 ЮВ 3 20 км ясно +35.9 +8.9 19 +34 +40 очень
жарко
1011.8 949.5
17 17.08 Ю 3 30 км ясно +36.1 +7.6 17 +34 +37 очень
жарко
1011.6 949.3
18 17.08 Ю 3 30 км ясно +35.3 +7.4 18 +33 +34 жарко 1011.6 949.1 +36.3
20 17.08 ЮЗ 1 30 км ясно +30.6 +7.5 24 +30 +30 жарко 1012.7 949.2
19 17.08 Ю 2 30 км ясно +33.9 +7.6 20 +32 +32 жарко 1011.9 949.1
21 17.08 ЮВ 1 30 км ясно +28.2 +7.6 27 +28 +28 жарко 1013.6 949.6
22 17.08 С 3 30 км ясно +26.7 +9.1 33 +27 +27 жарко 1014.1 949.8
23 17.08 С 2 30 км ясно +25.9 +9.1 35 +26 +26 жарко 1014.3 949.8
00 18.08 С 2 30 км ясно +23.8 +9.9 41 +25 +25 комфорт 1014.9 949.9
02 18.08 штиль 0 30 км ясно +22.3 +9.2 43 +24 +24 комфорт 1015.0 949.7
01 18.08 штиль 0 30 км ясно +23.2 +8.1 38 +24 +24 комфорт 1015.2 950.0
03 18.08 С 3 30 км ясно +21.7 +9.7 46 +23 +23 комфорт 1015.3 949.8
04 18.08 СЗ 2 30 км ясно +21.3 +8.5 44 +22 +22 комфорт 1015.3 949.7
05 18.08 С 2 30 км ясно +20.5 +9.0 48 +23 +23 комфорт 1015.8 950.1
06 18.08 С 2 30 км ясно +20.0 +9.1 49 +22 +22 комфорт 1016.5 950.6 +20.0
08 18.08 ЮВ 1 30 км ясно +25.7 +11.2 40 +27 +33 жарко 1015.6 951.0
07 18.08 С 2 30 км ясно +22.4 +9.7 44 +24 +26 комфорт 1016.5 951.1
09 18.08 Ю 2 30 км ясно +27.7 +14.8 45 +30 +39 жарко 1014.9 950.9
10 18.08 Ю 2 30 км ясно +29.7 +15.5 42 +32 +46 душно 1014.1 950.5
11 18.08 Ю 2 30 км ясно +31.5 +14.7 36 +33 +49 жарко 1013.1 949.9
12 18.08 ЮЗ 2 30 км ясно +33.4 +13.7 30 +34 +51 опасность
солнечного
удара
1012.3 949.5
14 18.08 З 2 30 км ясно +35.7 +10.7 22 +35 +49 очень
жарко
1010.7 948.4
13 18.08 ЮЗ 3 30 км ясно +35.0 +11.2 24 +35 +48 очень
жарко
1011.3 948.9
15 18.08 Ю 3 30 км ясно +36.7 +9.2 19 +35 +45 очень
жарко
1009.7 947.7
16 18.08 ЮЗ 3 30 км ясно +37.1 +8.7 18 +35 +41 очень
жарко
1009.2 947.3
17 18.08 З 3 30 км ясно +36.6 +9.2 19 +35 +38 очень
жарко
1009.2 947.2
18 18.08 З 6 30 км ясно +35.1 +8.6 20 +34 +34 очень
жарко
1009.8 947.4 +37.3
20 18.08 С 2 30 км ясно +30.0 +6.3 22 +29 +29 жарко 1011.7 948.1
19 18.08 СЗ 4 30 км ясно +32.9 +6.1 19 +31 +31 жарко 1010.8 947.9
21 18.08 С 3 30 км 6/0
[Cs]
+29.0 +6.1 23 +28 +28 жарко 1012.9 949.1
22 18.08 СВ 4 30 км н/о +27.9 +12.5 39 +29 +29 жарко 1012.9 949.0
23 18.08 СЗ 3 30 км 3/0
[Ci fib]
+26.0 +12.9 44 +28 +28 жарко 1014.1 949.7
00 19.08 С 3 30 км ясно +24.9 +13.2 48 +27 +27 жарко 1014.8 950.1
02 19.08 С 3 30 км ясно +23.2 +13.3 54 +26 +26 жарко 1015.1 950.0
01 19.08 С 4 30 км ясно +24.0 +13.2 51 +26 +26 жарко 1014.9 950.0

 

Местоположение метеостанции Madrid (Испания): широта 40.45 долгота -3.55 высота над уровнем моря 582 м.

В архиве по умолчанию представлена погода в Madrid за последнюю неделю. Архивные данные за месяц целиком и за предыдущие месяцы, начиная с января 2011 года, Вы можете получить, выбрав интересующий диапазон дат из раскрывающегося списка и нажав кнопку "Ввод!".

Внимание! Время в таблицах - всемирное. Для получения местного времени необходимо прибавить поправку, которая в Madrid равна 1 ч.

Смотрите также архив погоды в соседних городах и на ближайших метеорологических станциях:

Погода в Madrid Airport (Испания) (22 км)
Погода в Guadalajara (Испания) (39 км)
Погода в Navacerrada (Испания) (54 км)
Погода в Segovia (Испания) (74 км)
Погода в Toledo (Испания) (76 км)
Погода в Avila (Испания) (100 км)
Погода в Cuenca (Испания) (128 км)
Погода в Molina de Aragon (Испания) (148 км)
Погода в Ciudad Real (Испания) (167 км)
Погода в Valladolid (Испания) (168 км)

Пояснения к столбцам:

Ветер - указаны скорость ветра в м/с - средняя за 10 мин, порывы в срок и между сроками (в фигурных скобках) и направление, откуда дует ветер: С - северный, СВ - северо-восточный, В - восточный, ЮВ - юго-восточный, Ю - южный, ЮЗ - юго-западный, З - западный, СЗ - северо-западный.
Видимость - горизонтальная дальность видимости в метрах или километрах. При видимости от 1 до 10 км при отсутствии осадков обычно наблюдается дымка, при ухудшении видимости до 1 км и менее - туман. В сухую погоду видимость может ухудшаться дымом, пылью или мглою.
Явления - указаны атмосферные явления, наблюдавшиеся в срок или в последний час перед сроком; фигурными скобками обозначены явления, наблюдавшиеся между сроками (за 1-3 часа до срока); квадратными скобками обозначены град или гололедные отложения с указанием их диаметра в мм.
Облачность - указаны через наклонную черту общая и нижняя облачность в баллах и высота нижней границы облаков в метрах; квадратными скобками обозначены формы облаков: Ci - перистые, Cs - перисто-слоистые, Cc - перисто-кучевые, Ac - высококучевые, As - высокослоистые, Sc - слоисто-кучевые, Ns - слоисто-дождевые, Cu - кучевые, Cb - кучево-дождевые. Подробнее классификацию облаков см. в Атласе облаков (PDF).
T - Температура воздуха - температура, измеренная на высоте 2 м над землей.
Td - Температура точки росы - температура, при понижении до которой содержащийся в воздухе водяной пар достигнет насыщения.
f - Относительная влажность воздуха - влажноcть воздуха, измеренная на высоте 2 м над землей.
Te - Эффективная температура - температура, которую ощущает одетый по сезону человек в тени. Характеристика душности погоды. При расчете учитывается влияние влажности воздуха и скорости ветра на теплоощущения человека.
Tes - Эффективная температура на солнце - температура, которую ощущает человек, с поправкой на солнечный нагрев. Характеристика знойности погоды. Зависит от высоты солнца над горизонтом, облачности и скорости ветра. Ночью, в пасмурную погоду, а также при ветре 12 м/с и более поправка равна нулю.
P - Атмосферное давление - приведенное к уровню моря атмосферное давление.
Po - Атмосферное давление - измеренное на уровне метеостанции атмосферное давление.
Tmin - Минимальная температура - минимум температуры воздуха на высоте 2 м над землей.
Tmax - Максимальная температура - максимум температуры воздуха на высоте 2 м над землей.
R - Количество осадков - Количество выпавших осадков за период времени, мм. При наведении курсора мыши на число - период времени, за который выпало указанное количество осадков.
R24 - Количество осадков - Количество выпавших осадков за 24 часа, мм.
S - Снежный покров - Высота снежного покрова, см. При наведении курсора мыши на число - состояние снежного покрова и степень покрытия местности в баллах.